Theta_e
322 325 326 326 326 325 324 327 328 327 327 330 330 329 326 317 312 313 312 308 307 316 326 328 328 330 331 330 329 330 330 330 330 330 329 328 328 328 328 328 328 328 327 325
323 324 323 322 324 326 325 326 326 327 328 329 330 329 326 322 321 315 315 315 308 309 310 320 327 328 329 330 330 329 330 330 330 329 330 329 329 329 329 328 329 328 328 326
322 321 320 324 325 327 328 328 326 328 326 328 327 331 329 326 317 315 314 315 316 313 310 310 318 327 328 329 329 329 330 329 330 329 329 329 329 329 329 329 329 330 329 328
323 320 322 324 326 326 329 326 326 329 330 334 327 335 329 327 326 322 318 317 318 317 311 310 309 318 326 328 328 328 328 329 329 329 328 328 328 328 327 327 328 330 329 329
321 322 323 326 324 324 327 323 325 326 330 326 322 325 327 324 324 323 319 318 319 319 317 310 309 312 320 324 328 328 328 328 329 329 328 328 327 327 327 326 326 327 329 329
319 317 321 323 322 322 324 324 324 324 324 328 326 324 327 321 316 319 318 316 316 317 315 313 312 312 316 321 326 328 328 328 328 329 328 328 328 327 326 327 326 326 326 326
321 320 319 319 324 323 325 326 326 327 325 329 321 324 327 319 315 314 314 314 310 311 311 311 309 309 316 321 324 327 328 327 328 328 328 328 328 327 327 326 326 326 326 326
324 322 321 320 321 322 324 325 329 331 327 325 315 326 323 318 317 319 316 315 310 307 307 309 310 308 313 319 323 325 327 328 328 327 328 328 328 327 327 327 326 326 326 326
322 323 319 319 318 321 324 326 320 319 306 313 315 312 310 311 311 310 308 311 311 309 304 304 305 308 309 317 321 324 326 327 328 328 328 327 328 328 327 327 327 327 326 326
320 322 319 318 318 319 320 319 323 321 323 321 316 312 317 313 314 319 310 307 307 306 305 303 302 304 308 312 318 322 324 326 327 328 328 329 329 328 328 328 328 327 327 327
319 320 319 318 321 324 322 323 323 320 318 323 316 315 308 314 312 310 309 307 306 304 303 302 301 302 305 307 314 319 323 324 326 326 327 328 329 329 329 329 329 328 329 329
319 316 320 321 315 318 320 322 322 325 322 313 313 316 308 307 308 304 303 303 304 302 302 300 300 301 302 305 306 317 321 323 324 325 326 327 328 328 329 329 329 329 329 329
317 315 319 318 317 315 319 321 322 319 314 319 321 319 309 303 304 302 303 303 302 303 302 301 300 300 302 304 305 307 314 321 323 324 325 326 326 327 327 328 328 329 329 329
316 314 315 319 315 317 321 321 321 322 323 321 319 318 314 310 305 304 304 303 302 300 301 301 302 301 302 304 305 306 307 308 311 317 321 323 324 325 325 325 326 327 327 328
315 314 314 314 313 312 318 319 321 322 322 324 321 320 318 316 312 305 302 301 302 301 301 301 302 302 302 304 306 307 307 307 307 307 307 307 307 307 307 308 310 315 321 325
309 313 313 315 315 314 311 316 320 321 321 322 321 320 314 310 307 302 302 301 302 302 300 301 301 301 301 304 305 307 308 309 309 309 309 308 308 308 309 311 312 316 320 322
311 311 313 315 314 316 317 315 316 320 318 319 321 319 311 309 305 306 304 301 302 302 301 301 301 301 302 304 306 307 308 309 310 310 310 310 309 310 311 313 315 317 318 319
312 312 313 317 311 319 315 311 312 315 317 318 317 317 315 314 311 307 303 303 302 301 300 300 300 301 303 305 305 306 307 308 309 310 310 310 309 309 310 310 311 312 313 313
308 310 312 310 315 313 313 309 311 314 315 314 315 316 315 312 311 310 307 301 301 300 299 300 301 301 302 301 302 304 305 306 308 308 309 309 309 309 308 309 309 309 309 309
307 308 311 308 304 317 311 308 307 309 314 312 313 314 314 311 314 314 311 308 304 300 301 300 300 300 300 300 302 303 303 304 305 306 307 308 308 309 309 309 306 306 305 305
307 307 308 310 310 305 308 306 308 313 314 309 311 312 312 313 314 314 310 307 301 298 297 299 299 298 296 297 299 300 300 300 299 300 301 303 304 306 306 306 305 304 303 303
308 309 310 309 311 312 304 305 313 311 308 306 308 309 310 310 311 311 308 301 297 295 294 294 293 291 292 295 297 296 295 294 295 295 298 300 302 304 304 304 304 303 303 302
311 309 308 310 310 306 301 305 303 300 301 302 302 304 304 305 305 302 299 296 294 292 291 291 290 287 288 291 293 292 289 290 292 292 293 295 296 298 299 300 300 300 300 301
303 304 305 306 308 306 304 302 297 296 297 298 298 298 300 302 299 297 294 293 291 289 287 286 286 285 284 286 287 288 290 291 292 292 293 293 295 296 297 298 299 298 299 299
301 298 301 303 303 300 297 293 292 293 295 294 294 294 295 298 296 294 291 289 288 286 285 285 284 283 282 284 286 289 291 292 293 293 294 294 294 295 296 296 296 296 296 297
289 296 303 305 286 286 294 287 289 289 292 291 292 294 292 292 293 290 289 286 285 283 282 281 280 280 281 283 285 288 290 292 292 292 292 293 293 293 294 293 292 292 293 293
Wind_Speed
15 7 18 26 16 2 6 9 10 6 5 6 12 17 19 16 10 10 9 10 12 15 24 24 31 33 30 34 36 42 42 42 42 40 37 37 36 34 33 33 32 31 31 30
5 18 17 8 9 12 5 9 11 4 4 3 9 18 20 20 16 19 18 13 11 16 12 19 26 30 35 36 43 43 44 45 45 39 39 33 34 38 39 36 35 35 34 32
21 4 14 11 14 16 16 18 7 5 2 4 4 16 21 21 10 16 16 14 16 17 16 16 20 31 36 38 40 42 47 43 45 42 35 33 30 32 33 38 38 38 37 35
9 11 17 15 14 17 19 9 5 4 3 4 6 10 18 12 21 22 19 18 21 19 14 16 18 24 32 39 39 42 39 42 44 42 37 39 36 33 32 33 41 43 39 39
11 13 17 17 20 17 8 9 11 7 6 3 4 4 7 9 14 16 19 21 22 23 19 17 18 30 34 39 38 41 41 43 43 45 44 41 33 30 30 33 35 42 45 43
8 3 12 14 12 19 8 5 3 2 2 6 8 8 11 7 7 9 13 15 21 20 14 15 24 25 28 32 35 37 38 44 44 45 44 41 39 33 30 34 34 36 40 42
11 10 2 3 7 6 9 9 3 4 4 10 8 10 20 5 5 7 9 13 10 10 10 13 13 16 25 31 36 37 37 36 43 45 46 44 43 38 36 36 37 32 34 36
10 7 19 11 7 8 17 11 3 5 5 2 1 10 7 12 16 15 10 16 7 9 9 11 13 17 24 31 37 37 37 37 41 43 44 46 42 39 40 37 36 37 37 40
8 6 15 12 5 11 6 7 2 2 2 2 5 8 6 13 10 12 12 9 13 11 9 11 9 19 24 29 35 39 38 38 38 41 43 41 41 41 40 39 37 38 39 38
5 4 13 11 5 5 10 11 4 3 4 5 6 6 9 4 14 19 8 10 12 10 10 9 8 15 26 30 34 37 38 38 40 44 42 41 44 44 42 35 39 39 37 35
3 5 3 11 15 16 6 8 6 5 4 6 3 8 9 19 15 7 10 8 11 10 10 9 7 9 14 23 26 31 33 34 35 39 39 38 37 39 38 37 38 39 37 37
6 2 4 16 2 14 17 11 13 8 11 4 2 11 4 8 5 6 11 9 7 8 7 8 7 8 8 13 21 27 30 34 37 38 37 38 37 36 37 37 39 39 39 37
10 4 3 4 2 2 7 15 19 10 2 12 8 10 5 4 4 8 9 8 5 2 3 4 4 6 9 11 15 21 24 28 30 30 31 32 35 35 36 38 37 38 36 37
12 4 6 11 2 7 13 18 20 19 8 11 16 10 7 7 5 7 6 4 5 5 6 5 4 6 10 13 13 14 16 18 21 24 28 31 33 34 36 35 34 33 34 34
5 3 5 9 4 3 8 21 23 22 23 11 22 19 15 17 12 6 5 7 6 7 8 8 7 6 8 9 10 11 13 15 17 19 21 23 23 24 25 26 27 28 29 31
3 2 1 3 12 6 4 11 20 22 22 23 29 32 11 9 7 6 8 7 8 8 9 9 7 6 7 12 14 13 13 14 15 17 17 15 15 16 17 17 18 19 20 22
8 5 3 4 6 5 8 23 17 22 21 27 27 38 5 9 9 10 9 9 10 10 9 9 8 8 9 12 13 15 14 14 14 13 12 12 12 14 15 15 16 16 17 18
5 5 4 3 2 9 7 9 21 22 22 27 30 30 15 18 11 8 8 7 10 9 9 9 6 7 11 10 11 10 9 12 12 11 11 12 12 12 13 14 14 14 14 15
5 3 2 3 3 8 10 7 11 14 26 23 22 30 28 9 2 13 9 7 11 10 9 5 8 12 10 9 7 9 11 11 9 10 11 12 12 14 15 14 11 10 10 10
10 6 3 1 4 6 11 6 9 4 17 24 22 28 24 8 11 20 15 14 13 10 10 8 7 6 9 6 6 9 9 10 11 12 13 14 15 18 17 15 14 13 11 10
8 9 17 13 10 8 7 4 7 10 14 4 21 24 19 12 21 31 8 10 6 7 12 13 13 14 10 7 8 11 11 10 8 7 10 12 13 13 12 10 12 11 10 9
9 8 6 9 6 16 6 5 18 17 11 10 2 11 15 19 22 23 13 7 8 8 9 13 15 11 6 4 6 8 7 4 5 7 7 6 7 8 10 11 13 11 10 10
7 7 5 9 8 5 7 5 2 5 4 6 6 5 5 7 11 6 6 8 6 7 9 9 13 10 8 6 6 10 4 3 3 3 3 3 3 4 7 10 10 9 10 10
4 4 4 2 6 6 6 6 7 7 6 10 7 7 5 5 5 4 5 6 5 6 7 9 11 10 8 8 9 8 6 5 7 8 5 5 5 6 6 6 5 7 8 9
2 4 4 7 3 7 6 12 14 15 9 10 11 6 6 3 3 6 5 7 6 8 10 12 12 10 8 8 10 9 8 8 9 10 9 8 7 8 9 7 5 4 3 2
4 4 5 4 5 7 6 13 17 15 12 12 11 11 6 6 2 6 6 6 8 8 11 12 13 14 11 11 10 10 11 11 13 13 11 11 11 12 13 16 18 16 14 12
Wind_Direction
184 200 208 207 211 95 179 205 227 236 162 160 239 256 260 261 255 264 245 231 225 225 229 225 223 219 215 216 212 215 214 217 217 214 216 221 223 226 227 229 231 231 233 231
183 217 218 204 201 226 220 213 226 316 161 196 238 258 258 257 246 245 244 239 225 239 228 226 218 214 213 213 217 217 218 217 219 213 215 215 220 226 229 231 231 232 234 233
206 206 200 203 189 208 228 225 200 220 341 256 332 265 262 255 231 237 242 239 238 225 229 225 211 209 211 211 213 213 220 215 218 215 213 214 219 224 228 230 233 233 232 233
239 194 198 203 208 198 230 193 211 184 219 239 164 287 257 251 239 241 241 238 238 237 223 224 217 215 210 214 214 215 212 216 219 218 210 210 213 219 224 226 231 233 232 233
205 183 201 195 207 195 228 161 199 228 274 266 174 278 271 236 230 237 237 238 239 234 224 211 213 217 213 217 211 212 213 213 217 218 214 214 213 218 221 226 229 232 236 235
206 249 198 205 185 189 127 83 80 115 149 246 192 194 256 229 211 234 241 238 236 240 226 222 218 218 215 215 210 209 205 213 215 217 213 213 216 215 215 223 227 230 233 237
178 187 186 180 154 174 156 138 200 184 194 242 184 196 242 250 236 249 260 259 234 232 223 221 208 201 208 205 207 206 203 204 210 214 217 216 219 217 220 222 226 227 231 232
177 186 178 187 197 189 196 185 196 221 197 197 235 224 244 234 242 261 257 252 267 255 230 223 218 209 206 203 204 203 202 204 208 210 214 220 220 219 223 227 227 230 233 239
175 224 176 186 175 160 167 201 185 89 147 351 222 285 283 269 246 253 234 224 242 242 244 238 221 214 210 203 205 205 204 207 205 209 214 215 218 220 224 226 231 233 238 240
186 243 188 187 213 237 191 139 158 154 218 239 260 278 240 304 253 250 251 214 240 244 250 247 226 218 220 219 217 213 211 207 207 214 214 215 221 225 227 227 231 233 235 239
167 208 160 150 204 184 158 182 202 170 190 225 263 255 208 216 238 263 274 260 239 218 226 231 239 231 228 225 222 217 213 211 210 215 216 217 222 227 229 227 233 237 240 243
189 170 187 208 142 218 216 208 191 201 218 231 213 257 235 217 242 268 271 276 270 252 238 231 228 232 225 217 214 214 216 217 220 221 220 222 226 232 231 232 235 238 240 243
168 184 154 154 298 312 203 211 214 212 37 213 209 246 294 202 230 236 247 270 248 268 230 229 205 208 206 208 206 208 214 219 221 221 223 227 229 232 235 238 238 241 240 242
159 176 219 230 130 136 208 208 214 220 211 227 223 242 253 305 296 295 277 264 274 243 218 234 232 214 213 204 196 191 199 209 214 217 221 226 229 232 236 239 241 243 244 244
182 195 208 258 280 345 211 215 216 218 233 245 246 254 258 277 282 284 266 297 258 248 233 218 218 209 204 203 201 200 202 203 205 210 217 227 235 238 240 241 241 241 242 243
136 212 103 251 263 232 263 240 211 213 229 243 261 266 267 229 240 245 247 253 258 252 249 239 214 209 210 210 209 207 209 208 209 213 220 224 230 234 234 234 231 231 232 232
163 159 142 257 220 236 247 234 219 216 222 222 235 239 155 229 230 230 239 215 232 237 233 232 211 197 209 220 213 209 205 205 208 216 228 232 228 231 230 226 224 223 226 230
166 172 178 267 133 222 246 178 213 227 231 230 241 247 242 244 249 256 235 230 230 232 232 232 204 207 206 215 219 221 214 213 207 213 225 232 229 231 231 226 223 221 222 228
169 145 211 207 187 316 300 228 193 195 247 238 244 245 244 241 337 265 250 213 220 215 225 240 210 211 201 199 206 212 207 210 208 218 226 233 233 230 225 224 218 215 218 222
188 186 200 160 199 216 240 212 151 100 278 228 224 241 237 199 235 255 229 225 236 203 219 194 173 173 177 187 204 195 189 199 203 213 222 226 228 231 227 222 213 216 221 228
192 207 219 229 245 274 231 127 123 148 241 79 221 236 236 205 225 244 227 221 197 174 165 165 163 160 168 180 184 170 169 176 189 208 221 220 220 225 226 224 220 219 225 229
174 179 201 220 235 257 135 130 171 223 286 323 263 227 219 222 233 243 234 176 162 152 139 154 140 135 129 137 154 137 143 183 205 213 208 197 213 213 221 207 215 220 222 217
209 200 187 194 212 288 234 206 339 2 305 323 319 319 244 233 243 213 171 150 150 138 124 134 134 114 82 82 135 139 160 180 144 137 99 114 159 173 187 199 207 211 218 219
246 208 228 72 250 245 285 311 31 8 333 318 324 314 308 241 179 154 125 117 113 103 103 116 109 96 91 91 98 116 108 108 119 113 120 126 125 135 152 164 177 210 210 206
205 8 263 258 335 318 86 21 345 343 331 344 332 335 352 308 152 126 117 108 109 105 99 110 113 115 99 104 97 99 105 118 112 105 109 119 136 137 130 123 125 162 141 217
165 184 205 225 18 312 298 341 342 342 339 341 340 338 355 21 13 100 106 114 117 113 118 111 112 112 103 96 91 97 109 120 124 115 116 118 122 123 125 123 103 90 92 89